Weather History for Asheville, NC

Change the Weather History Date:

Friday, June 14, 2013

  Actual Average Record
Temperature  
Mean Temperature 68 °F 70 °F  
Max Temperature 78 °F 81 °F 90 °F (1981)
Min Temperature 58 °F 59 °F 41 °F (1903)
Degree Days  
Heating Degree Days 0 0  
Month to date heating degree days 0 11  
Since 1 June heating degree days 0 11  
Since 1 July heating degree days 4077 4192  
Cooling Degree Days 3 6  
Month to date cooling degree days 92 66  
Year to date cooling degree days 143 124  
Since 1 June cooling degree days 92 66  
Growing Degree Days 18 (Base 50)    
Moisture  
Dew Point 54 °F    
Average Humidity 63    
Maximum Humidity 87    
Minimum Humidity 39    
Precipitation  
Precipitation 0.00 in 0.17 in 1.38 in (1954)
Month to date precipitation 7.37 2.11  
Year to date precipitation 36.49 20.36  
Snow  
Snow 0.00 in 0.00 in 0.00 in ()
Month to date snowfall 0.0 0.0  
Since 1 June snowfall 0.0 0.0  
Since 1 July snowfall 0.5 9.9  
Snow Depth 0.00 in    
Sea Level Pressure  
Sea Level Pressure 29.93 in    
Wind  
Wind Speed 13 mph (NNW)    
Max Wind Speed 30 mph    
Max Gust Speed 37 mph    
Visibility 10 miles    
Events      
T = Trace of Precipitation, MM = Missing Value Source: NWS Daily Summary

Daily Weather History Graph

Daily Weather History Graph

Search for Another Location

Airport:

Trip Planner

Search our weather history database for the weather conditions in past years. The results will help you decide how hot, cold, wet, or windy it might be!

Date:

Astronomy

Jun. 14, 2013 Rise Set
Actual Time 6:14 AM EDT 8:46 PM EDT
Civil Twilight 5:44 AM EDT 9:16 PM EDT
Nautical Twilight 5:07 AM EDT 9:53 PM EDT
Astronomical Twilight 4:26 AM EDT 10:34 PM EDT
Moon 11:38 AM EDT (6/14) 12:01 AM EDT (6/14)
Length of Visible Light 15h 32m
Length of Day
14h 32m
Waxing Crescent, 30% of the Moon is Illuminated
Jun 14
Waxing Crescent
Jun 16
First Quarter
Jun 23
Full
Jun 30
Last Quarter
Jul 8
New

Hourly Weather History & Observations

Time (EDT) Temp. Dew Point Humidity Pressure Visibility Wind Dir Wind Speed Gust Speed Precip Events Conditions
12:54 AM 66.9 °F 61.0 °F 81% 29.83 in 10.0 mi NNW 12.7 mph - N/A   Partly Cloudy
1:54 AM 66.9 °F 59.0 °F 76% 29.84 in 10.0 mi NNW 12.7 mph 19.6 mph N/A   Overcast
2:54 AM 64.0 °F 55.9 °F 75% 29.86 in 10.0 mi NNW 8.1 mph - N/A   Partly Cloudy
3:54 AM 61.0 °F 55.0 °F 81% 29.86 in 10.0 mi Calm Calm - N/A   Clear
4:54 AM 60.1 °F 55.9 °F 86% 29.88 in 10.0 mi Calm Calm - N/A   Mostly Cloudy
5:54 AM 60.1 °F 55.0 °F 83% 29.91 in 10.0 mi NNW 3.5 mph - N/A   Mostly Cloudy
6:54 AM 63.0 °F 53.1 °F 70% 29.88 in 10.0 mi NNW 20.7 mph 32.2 mph N/A   Clear
7:54 AM 66.0 °F 53.1 °F 63% 29.89 in 10.0 mi NNW 17.3 mph 29.9 mph N/A   Clear
8:54 AM 68.0 °F 54.0 °F 61% 29.90 in 10.0 mi North 20.7 mph 29.9 mph N/A   Clear
9:54 AM 70.0 °F 55.0 °F 59% 29.92 in 10.0 mi NNW 23.0 mph 34.5 mph N/A   Clear
10:54 AM 72.0 °F 52.0 °F 49% 29.94 in 10.0 mi NNW 18.4 mph 28.8 mph N/A   Clear
11:54 AM 73.9 °F 54.0 °F 50% 29.94 in 10.0 mi North 12.7 mph 24.2 mph N/A   Clear
12:54 PM 75.0 °F 52.0 °F 44% 29.95 in 10.0 mi NNW 21.9 mph 29.9 mph N/A   Clear
1:54 PM 75.9 °F 52.0 °F 43% 29.95 in 10.0 mi NNW 23.0 mph 29.9 mph N/A   Clear
2:54 PM 77.0 °F 50.0 °F 39% 29.94 in 10.0 mi NNW 19.6 mph 33.4 mph N/A   Clear
3:54 PM 77.0 °F 51.1 °F 40% 29.95 in 10.0 mi NNW 25.3 mph 29.9 mph N/A   Clear
4:54 PM 75.9 °F 52.0 °F 43% 29.96 in 10.0 mi North 17.3 mph 27.6 mph N/A   Clear
5:54 PM 75.9 °F 53.1 °F 45% 29.96 in 10.0 mi NNW 13.8 mph - N/A   Clear
6:54 PM 75.0 °F 51.1 °F 43% 29.96 in 10.0 mi NNW 16.1 mph - N/A   Clear
7:54 PM 72.0 °F 52.0 °F 49% 29.99 in 10.0 mi NNW 10.4 mph - N/A   Clear
8:54 PM 68.0 °F 52.0 °F 56% 30.00 in 10.0 mi NNW 8.1 mph - N/A   Clear
9:54 PM 64.9 °F 54.0 °F 68% 30.02 in 10.0 mi NNW 6.9 mph - N/A   Clear
10:54 PM 64.9 °F 53.1 °F 65% 30.04 in 10.0 mi NNE 3.5 mph - N/A   Clear
11:54 PM 59.0 °F 55.0 °F 87% 30.07 in 10.0 mi Calm Calm - N/A   Clear